Regional Weather Roundup
Issued by NWS Boston, MA

Home | Current Version | Previous Version | Text Only | Print | Product List | Glossary On
Versions: 1 2 3 4 5 6 7 8 9 10 11 12 13 14 15 16 17 18 19 20 21 22 23 24 25 26 27 28 29 30 31 32 33 34 35 36 37 38 39 40 41 42 43 44 45 46 47 48 49 50
000
ASUS41 KBOX 092010
RWRBOX

REGIONAL WEATHER ROUNDUP
NATIONAL WEATHER SERVICE BOSTON/NORTON MA
300 PM EST SUN DEC 09 2018

NOTE:  "FAIR" INDICATES FEW OR NO CLOUDS BELOW 12,000 FEET WITH NO
SIGNIFICANT WEATHER AND/OR OBSTRUCTIONS TO VISIBILITY.

MAZALL-092100-
EASTERN MASSACHUSETTS

CITY           SKY/WX    TMP DP  RH WIND       PRES   REMARKS
BOSTON         CLOUDY    36  17  46 SW10      30.26F WCI  28
BEVERLY        FAIR      34  17  50 SW17      30.24F WCI  23
LAWRENCE       FAIR      36  18  48 SW13      30.25F WCI  27
BEDFORD        FAIR      34  17  50 SW10      30.24F WCI  26
BLUE HILL        N/A     31  17  56 SW13G18   30.22F WCI  21
NORWOOD        FAIR      36  18  48 SW10      30.27F WCI  28
MARSHFIELD     FAIR      34  16  47 VRB7      30.27F WCI  28
PLYMOUTH       FAIR      33  17  51 SW9       30.28F WCI  25
TAUNTON        FAIR      34  16  47 W7        30.28F WCI  28
NEW BEDFORD    FAIR      33  18  53 W7        30.28F WCI  27
$$

MAZALL-092100-
CAPE COD AND THE ISLANDS

CITY           SKY/WX    TMP DP  RH WIND       PRES   REMARKS
FALMOUTH       FAIR      32  16  51 SW10      30.29F WCI  24
HYANNIS        FAIR      33  18  53 SW12      30.28F WCI  24
CHATHAM        FAIR      32  17  54 VRB7      30.30F WCI  26
PROVINCETOWN   FAIR      33  18  53 SW14      30.28F WCI  23
NANTUCKET      FAIR      33  18  53 W10       30.31F WCI  25
MARTHAS VNYRD  FAIR      33  19  56 SW8       30.30F WCI  26
$$

MAZALL-092100-
CENTRAL AND WESTERN MASSACHUSETTS

CITY           SKY/WX    TMP DP  RH WIND       PRES   REMARKS
WORCESTER      FAIR      29  17  61 SW14      30.21F WCI  18
FITCHBURG      FAIR      32  17  54 SW8G17    30.24F WCI  25
ORANGE         FAIR      34  17  50 SW14G21   30.23F WCI  25
SPRINGFIELD    PTSUNNY   34  15  46 S9        30.24F WCI  26
WESTFIELD      FAIR      35  16  45 S14       30.25F WCI  26
NORTH ADAMS    FAIR      33  19  56 SW6       30.22F WCI  28
PITTSFIELD     FAIR      30  15  53 SW10      30.18F WCI  21
$$

RIZALL-092100-
RHODE ISLAND

CITY           SKY/WX    TMP DP  RH WIND       PRES   REMARKS
PROVIDENCE     PTSUNNY   33  16  49 SW10      30.29F WCI  25
NEWPORT        FAIR      33  19  56 VRB7      30.29F WCI  27
BLOCK ISLAND   FAIR      34  21  59 SW12      30.31F WCI  25
SMITHFIELD     FAIR      31  18  58 SW7       30.25F WCI  24
WESTERLY       CLOUDY    35  24  64 W6        30.31F WCI  30
$$

CTZALL-092100-
CONNECTICUT

CITY           SKY/WX    TMP DP  RH WIND       PRES   REMARKS
BRADLEY INTL   PTSUNNY   33  16  49 SW13      30.27F WCI  24
HARTFORD       FAIR      33  15  47 SW8       30.30F WCI  26
BRIDGEPORT     FAIR      36  19  50 W8        30.32F WCI  30
DANBURY        FAIR      32  12  43 SW8       30.30F WCI  25
GROTON         FAIR      34  21  59 W9        30.31F WCI  27
NEW HAVEN      FAIR      36  16  44 SW8       30.31F WCI  30
CHESTER        FAIR      32  14  47 SW9       30.29F WCI  24
MERIDEN        FAIR      33  15  47 SW5       30.30F WCI  29
WILLIMANTIC    FAIR      32  17  54 VRB7      30.29F WCI  26
OXFORD         FAIR      31  16  54 SW6       30.27F WCI  25
$$

MEZ002-015-021-024-NHZ003-005-008-011-012-014-VTZ005-008-092100-
NORTHERN NEW ENGLAND

CITY           SKY/WX    TMP DP  RH WIND       PRES   REMARKS
PORTLAND ME    FAIR      33  14  45 S9        30.21F WCI  25
BANGOR ME      MOCLDY    27  11  51 S6        30.17F WCI  20
CONCORD NH     FAIR      32  19  58 S8        30.20F WCI  25
MANCHESTER NH  MOCLDY    33  17  51 SW9       30.21F WCI  25
NASHUA NH      FAIR      33  18  53 VRB6      30.23F WCI  28
PORTSMOUTH NH  MOCLDY    34  15  47 SW12G20   30.20F WCI  25
JAFFREY NH     FAIR      29  19  66 SW7G16    30.18F WCI  22
KEENE NH       FAIR      34  18  52 S8        30.21F WCI  27
BURLINGTON VT  FAIR      33  19  56 S15       30.13S WCI  23
MT. WASHINGTON MOCLDY     7   1  78 W53G72      N/A  WCI -22
$$

NYZ052-076-092100-
EASTERN NEW YORK

CITY           SKY/WX    TMP DP  RH WIND       PRES   REMARKS
ALBANY         FAIR      36  17  46 S12       30.23F WCI  28
NEW YORK CITY  CLOUDY    36  19  50 SW8       30.32F WCI  30
$$

ANZALL-092100-
MARINE OBSERVATIONS

STATION/POSITION TIME  TEMP    WIND        PRES    VSBY  WAVE
                       AIR SEA DIR/SP/G                  HT/PER
                 (UTC) (F)     (DEG/KT/KT) (MB)    (MI)  (FT/S)
BOSTON BUOY      1950   35 46  230/ 14/ 16 1024.4F         1/ 3
BUZZARDS BAY     1900   33     270/ 16/ 18 1027.0F
NANTUCKET SOUND  1950   33 40  250/ 12/ 16 1026.1F         1
MASS BAY-STELLWA 1904   34 44  240/ 14/ 19 1024.0F  1 7/8  2/ 3
ISLE OF SHOALS   1900   33     240/ 13/ 15 1023.9F
S OF BLOCK IS    1943      50                N/A           1/ 4
$$

......................KEY.........................
  SKY/WX - SKY CONDITION/PRESENT WEATHER
  TMP    - TEMPERATURE IN FAHRENHEIT
  DWPT   - DEWPOINT IN FAHRENHEIT
  RH     - RELATIVE HUMIDITY IN PERCENT
  WIND   - DIRECTION AND SPEED IN MPH
  PRES   - MEAN SEA LEVEL PRESSURE IN INCHES OF HG
  WCI    - WIND CHILL INDEX
  VSB    - VISIBILITY IN MILES
  HX     - HEAT INDEX
  TC     - TEMPERATURE IN CELSIUS
  VRB    - VARIABLE WIND DIRECTION
  N/A    - NOT AVAILABLE




USA.gov is the U.S. government's official web portal to all federal, state and local government web resources and services.